Weather History for KHLC - May, 2011

Change the Weather History Date:

Sunday, May 15, 2011

  Actual Average Record
Temperature  
Mean Temperature 47 °F 62 °F  
Max Temperature 55 °F 75 °F 97 °F (1931)
Min Temperature 38 °F 50 °F 27 °F (1907)
Degree Days  
Heating Degree Days 18    
Moisture  
Dew Point 36 °F    
Average Humidity 65    
Maximum Humidity 86    
Minimum Humidity 47    
Precipitation  
Precipitation 0.00 in 0.14 in 0.52 in (2007)
Month to date precipitation 0.38 1.77  
Year to date precipitation 2.70 6.49  
Sea Level Pressure  
Sea Level Pressure 30.17 in    
Wind  
Wind Speed 13 mph (NNW)    
Max Wind Speed 23 mph    
Max Gust Speed 29 mph    
Visibility 10 miles    
Events      
T = Trace of Precipitation, MM = Missing Value Source: NWS Daily Summary

Daily Weather History Graph

Daily Weather History Graph

Search for Another Location

Airport or City:

Trip Planner

Search our weather history database for the weather conditions in past years. The results will help you decide how hot, cold, wet, or windy it might be!

Date:

Astronomy

May. 15, 2011 Rise Set
Actual Time 6:25 AM CDT 8:46 PM CDT
Civil Twilight 5:55 AM CDT 9:16 PM CDT
Nautical Twilight 5:18 AM CDT 9:53 PM CDT
Astronomical Twilight 4:37 AM CDT 10:35 PM CDT
Moon 7:08 PM CDT (5/15) 4:48 AM CDT (5/15)
Length of Visible Light 15h 20m
Length of Day
14h 20m
Waxing Gibbous, 96% of the Moon is Illuminated
May 15
Waxing Gibbous
May 17
Full
May 24
Last Quarter
Jun 1
New
Jun 8
First Quarter

Hourly Weather History & Observations

Time (CDT) Temp. Windchill Dew Point Humidity Pressure Visibility Wind Dir Wind Speed Gust Speed Precip Events Conditions
12:53 AM 45.0 °F 40.1 °F 35.1 °F 68% 30.17 in 10.0 mi North 9.2 mph - N/A   Partly Cloudy
2:53 AM 42.1 °F 36.6 °F 35.1 °F 76% 30.17 in 10.0 mi NNW 9.2 mph - N/A   Scattered Clouds
3:53 AM 43.0 °F 36.8 °F 35.1 °F 74% 30.16 in 10.0 mi NW 11.5 mph - N/A   Overcast
4:53 AM 42.1 °F 35.2 °F 35.1 °F 76% 30.17 in 10.0 mi NNW 12.7 mph - N/A   Overcast
5:53 AM 42.1 °F 34.9 °F 35.1 °F 76% 30.17 in 10.0 mi NNW 13.8 mph - N/A   Overcast
6:53 AM 42.1 °F 34.2 °F 35.1 °F 76% 30.17 in 10.0 mi NNW 16.1 mph - N/A   Overcast
7:53 AM 44.1 °F 36.5 °F 35.1 °F 71% 30.18 in 10.0 mi NNW 17.3 mph 23.0 mph N/A   Scattered Clouds
9:53 AM 50.0 °F - 37.0 °F 61% 30.18 in 10.0 mi North 20.7 mph 28.8 mph N/A   Mostly Cloudy
10:50 AM 51.8 °F - 35.6 °F 54% 30.17 in 10.0 mi NNW 23.0 mph 28.8 mph N/A   Overcast
10:53 AM 51.1 °F - 35.1 °F 54% 30.18 in 10.0 mi NNW 20.7 mph 28.8 mph N/A   Overcast
11:53 AM 53.1 °F - 35.1 °F 50% 30.17 in 10.0 mi NNW 18.4 mph 25.3 mph N/A   Overcast
12:53 PM 53.1 °F - 34.0 °F 48% 30.18 in 10.0 mi NNW 17.3 mph 27.6 mph N/A   Overcast
1:53 PM 52.0 °F - 35.1 °F 53% 30.18 in 10.0 mi North 19.6 mph 26.5 mph N/A   Overcast
2:53 PM 55.0 °F - 35.1 °F 47% 30.16 in 10.0 mi NNW 18.4 mph 26.5 mph N/A   Overcast
3:53 PM 53.1 °F - 36.0 °F 52% 30.16 in 10.0 mi North 18.4 mph 26.5 mph N/A   Overcast
4:53 PM 54.0 °F - 37.9 °F 55% 30.15 in 10.0 mi North 19.6 mph 25.3 mph N/A   Overcast
5:53 PM 54.0 °F - 37.9 °F 55% 30.16 in 10.0 mi North 12.7 mph 25.3 mph N/A   Overcast
6:53 PM 53.1 °F - 37.9 °F 57% 30.14 in 10.0 mi NNE 12.7 mph 20.7 mph N/A   Overcast
7:53 PM 53.1 °F - 39.0 °F 59% 30.15 in 10.0 mi North 10.4 mph - N/A   Overcast
8:53 PM 48.9 °F - 39.0 °F 69% 30.15 in 10.0 mi North 4.6 mph - N/A   Mostly Cloudy
9:53 PM 42.1 °F 40.2 °F 37.0 °F 82% 30.16 in 10.0 mi WNW 3.5 mph - N/A   Clear
10:53 PM 39.9 °F 36.7 °F 36.0 °F 86% 30.18 in 10.0 mi NW 4.6 mph - N/A   Clear
11:53 PM 39.9 °F 37.8 °F 36.0 °F 86% 30.17 in 10.0 mi West 3.5 mph - N/A   Clear